Wind_Speed
7 3 4 3 5 8 9 8 8 7 3 2 2 1 10 8 10 14 13 11 10 11 12 15 14 16 21 20 20 22 20 19 8 10 13 11 13 9 12 15 14 16 17
5 1 3 3 7 9 12 12 11 10 11 11 9 4 9 12 9 9 11 10 8 9 13 13 13 17 21 18 18 20 23 20 15 11 15 18 18 13 9 9 13 12 12
4 2 1 3 5 8 11 13 13 13 15 9 7 11 14 12 11 5 11 14 8 5 7 12 13 13 18 20 25 21 19 21 19 16 15 16 14 14 16 13 11 12 14
8 8 6 4 5 6 8 10 11 13 14 14 12 4 7 13 13 15 15 12 11 5 7 16 16 14 18 21 21 21 21 19 18 17 14 15 15 12 16 17 20 16 17
7 5 4 2 2 4 7 8 9 12 13 13 13 12 10 7 5 5 10 7 7 10 14 17 17 17 17 18 19 18 17 19 19 19 17 14 14 12 13 15 16 18 21
8 6 4 2 2 2 5 9 9 11 12 14 15 15 14 9 8 9 10 10 8 11 12 15 16 17 17 16 15 15 16 17 19 20 18 17 20 16 15 17 16 8 3
6 6 4 4 6 5 6 8 11 12 11 12 14 16 16 12 15 15 13 13 14 13 13 14 16 16 15 15 14 14 16 21 23 23 23 23 23 24 19 18 17 13 10
5 6 5 5 3 3 6 9 12 15 16 15 15 16 18 18 19 20 19 17 18 17 16 15 15 14 13 13 13 13 14 15 16 16 22 26 27 25 22 20 18 18 15
7 5 3 3 1 5 7 10 15 16 16 17 17 18 18 19 18 18 19 17 17 18 16 15 13 13 11 11 13 14 15 15 13 15 15 18 22 22 21 20 16 12 8
5 5 2 3 6 7 8 11 14 15 17 17 17 19 20 21 21 19 17 14 16 17 16 16 15 14 11 11 12 12 13 13 12 13 13 14 13 17 16 20 21 18 8
4 4 8 9 10 10 11 12 14 14 15 17 16 15 17 20 22 20 16 9 5 10 12 15 15 13 13 10 9 10 11 11 13 14 14 14 14 16 19 21 23 25 23
8 9 11 13 15 16 16 16 15 13 14 11 14 22 23 26 25 21 14 14 17 17 14 14 14 13 14 13 12 12 14 15 14 14 14 16 18 21 22 24 23 27 30
9 11 13 15 16 17 18 19 17 15 9 15 19 21 22 20 21 23 21 19 18 17 17 13 13 14 14 15 16 15 14 13 12 13 17 20 20 20 20 22 23 25 29
15 16 17 18 20 20 19 19 18 17 20 21 20 18 19 19 21 21 21 20 17 16 19 20 18 16 17 19 18 17 18 19 20 20 22 25 24 21 21 21 23 23 22
18 18 19 20 20 22 23 21 21 22 21 22 23 22 22 23 22 20 20 21 20 20 19 20 22 23 24 23 24 25 25 23 21 20 19 19 18 21 20 20 23 21 21
21 21 20 20 21 23 24 25 23 22 23 24 24 23 25 24 22 22 20 22 20 17 17 19 23 26 26 29 29 31 27 23 23 23 21 20 19 22 24 19 21 20 20
18 20 21 20 23 23 21 21 22 26 25 24 22 20 21 24 25 23 21 19 17 17 13 15 18 22 24 25 26 27 28 29 28 24 26 21 21 23 23 21 20 20 21
17 19 20 22 21 21 20 20 20 20 19 19 24 30 29 27 22 17 17 17 13 12 13 15 17 19 20 21 23 24 25 24 25 25 25 24 21 22 21 20 18 20 19
18 17 22 23 22 21 19 20 20 21 21 22 25 25 23 23 21 17 14 16 18 20 21 20 19 20 20 21 21 22 23 25 26 25 25 24 22 21 21 22 19 21 21
17 17 18 19 19 19 19 20 20 20 21 21 21 23 25 20 16 18 18 19 21 21 22 23 25 23 23 23 24 24 24 25 26 26 27 26 23 23 23 23 20 19 19
17 16 18 18 18 20 20 20 21 21 21 21 21 22 29 29 22 18 17 20 21 21 21 22 23 23 24 25 26 27 26 26 26 26 25 25 22 21 22 25 23 21 18
15 16 17 18 19 19 21 20 21 22 22 23 24 24 27 24 20 20 20 20 22 22 25 25 24 22 23 24 25 27 27 26 27 27 26 25 23 22 22 21 21 21 20
20 18 17 17 18 20 20 21 21 22 23 24 24 24 22 22 22 24 24 23 21 30 30 23 23 23 22 21 25 27 27 26 29 29 28 27 25 24 23 21 20 19 20
20 20 17 17 19 20 21 22 22 22 23 23 23 24 24 24 25 26 26 27 28 24 27 30 24 29 32 33 31 31 28 28 29 31 32 29 27 27 27 24 22 22 23
17 19 19 16 17 18 19 21 21 22 23 23 23 25 25 26 26 26 27 26 28 27 26 28 34 33 31 31 32 32 34 35 34 31 30 29 29 29 28 26 24 23 23
14 15 17 17 17 18 18 19 20 22 23 23 24 25 27 27 27 28 28 28 27 29 33 33 32 32 32 32 33 34 36 34 31 29 30 30 29 28 28 25 24 23 24
Wind_Direction
184 175 208 303 347 352 342 343 340 337 329 294 2 263 208 219 262 284 298 298 285 286 285 262 267 281 266 260 261 253 244 236 229 271 272 285 287 301 254 245 240 239 236
198 262 298 304 334 343 347 348 350 334 302 281 272 234 194 213 245 288 305 309 278 278 291 266 259 242 245 257 270 264 248 246 233 237 278 290 288 277 278 258 243 244 241
169 291 337 1 17 35 21 13 20 20 18 6 259 272 257 244 243 247 273 293 276 242 251 273 262 245 249 236 253 259 247 240 238 237 260 277 282 263 275 273 269 266 266
114 99 89 57 28 25 31 30 25 21 21 20 16 319 260 271 271 254 254 244 252 260 246 255 255 253 249 247 244 244 242 235 235 236 245 261 274 268 245 272 281 277 270
134 131 115 98 59 17 26 31 30 20 14 11 9 8 356 353 339 302 281 275 256 254 256 260 261 261 263 255 245 241 249 239 237 238 241 249 253 247 237 252 256 270 272
163 169 174 199 258 339 357 4 9 12 7 359 357 353 348 347 356 350 333 324 293 274 266 268 274 266 261 256 251 248 242 238 240 224 231 234 255 251 257 248 240 246 276
192 216 232 268 291 323 351 356 0 0 2 357 347 341 335 322 324 321 327 315 300 294 292 291 289 279 270 266 264 264 253 250 251 255 251 254 257 259 257 251 243 234 223
237 287 283 292 303 349 353 352 348 339 333 332 330 323 315 308 308 311 311 301 295 290 288 291 289 288 275 271 276 275 273 279 275 272 253 259 259 264 263 246 249 242 244
266 247 162 133 328 321 322 331 335 333 331 330 328 323 319 313 314 314 310 297 289 284 282 280 282 284 282 280 277 281 283 283 276 274 279 277 271 264 256 233 230 209 231
175 193 218 301 300 289 299 316 330 331 330 333 339 338 334 332 333 328 322 292 281 284 287 280 273 271 281 280 267 267 277 296 294 289 281 279 276 265 251 242 243 213 204
221 276 292 288 288 298 298 313 322 324 327 330 336 343 344 346 341 341 331 292 313 329 322 314 287 267 260 260 266 270 276 284 288 292 295 290 282 272 267 252 244 243 236
299 310 320 317 314 314 311 312 308 307 312 316 330 325 322 319 319 329 326 317 314 309 309 315 307 274 252 257 264 278 284 280 275 280 287 289 287 285 281 274 261 250 249
3 357 349 336 331 328 320 314 305 302 288 308 311 306 306 311 312 310 305 312 306 290 289 294 293 283 259 255 266 276 271 269 274 277 285 291 293 300 288 282 281 270 259
351 345 338 335 331 328 327 325 318 309 312 313 310 297 299 302 311 313 314 310 304 295 279 280 277 267 265 265 265 266 268 266 271 273 277 284 285 284 290 278 266 262 248
345 340 338 336 335 332 330 325 320 314 314 310 305 302 299 297 303 309 304 310 304 303 297 282 272 269 263 258 258 261 264 263 260 264 265 270 265 269 279 276 264 253 236
343 341 336 335 334 333 332 326 323 318 315 311 305 301 303 301 302 302 295 299 297 290 285 277 275 272 265 266 270 275 274 266 266 270 267 260 255 257 268 279 255 240 240
346 343 341 338 333 329 324 319 316 317 317 316 318 314 310 308 305 299 293 300 298 292 272 279 275 274 274 276 277 278 276 276 276 270 271 256 254 254 262 267 257 232 236
342 339 337 336 330 324 320 318 314 308 309 313 318 317 313 314 314 304 299 301 295 289 286 287 286 289 288 281 281 280 281 281 275 271 266 262 254 250 250 250 250 241 231
344 338 338 335 330 323 320 319 318 316 314 313 313 313 313 317 317 310 306 302 298 298 304 298 294 293 292 290 284 282 279 279 278 273 271 265 258 249 247 246 245 242 238
340 338 340 335 330 327 324 318 314 311 308 309 308 309 315 321 314 312 311 303 301 292 296 295 294 291 289 287 284 283 281 277 275 268 265 263 256 252 245 242 235 233 231
4 349 344 336 335 332 328 325 318 316 318 317 316 314 315 314 305 300 298 302 301 297 292 286 284 286 287 286 283 280 275 274 271 269 265 261 251 250 248 240 234 225 225
10 358 355 351 343 340 336 332 332 328 325 322 319 319 319 317 311 308 306 301 297 296 299 292 285 281 280 278 277 274 271 267 268 266 264 260 250 246 244 238 224 218 216
21 11 4 359 355 348 342 339 336 335 332 328 325 324 327 326 324 318 315 316 315 310 312 305 310 300 288 287 288 281 271 265 265 268 261 258 248 240 239 235 229 222 213
20 17 7 2 355 355 348 340 337 337 336 334 333 332 329 324 318 316 313 311 312 309 301 308 295 294 296 301 295 291 277 279 276 273 270 255 248 251 234 233 231 229 227
11 16 18 4 355 347 342 344 340 337 337 335 333 333 330 328 326 324 320 316 312 310 307 300 304 306 303 295 293 289 286 286 285 286 269 260 255 251 236 225 224 224 223
347 359 7 8 4 354 348 343 341 339 338 336 334 334 333 331 330 327 324 319 315 310 308 310 307 306 303 298 296 294 289 286 284 281 285 275 252 246 230 222 222 215 211
Height
790 791 791 790 789 789 787 786 783 781 778 776 774 771 773 776 780 780 776 775 773 773 774 774 774 775 776 777 780 783 784 785 787 784 782 782 781 779 780 780 781 782 783
790 791 790 789 789 787 786 785 784 781 778 776 775 775 774 775 777 777 773 772 769 767 768 768 768 768 771 771 772 775 777 779 780 780 779 778 777 776 777 778 778 778 779
790 791 791 791 789 787 786 785 785 783 780 776 774 773 773 772 772 771 769 767 764 763 764 765 766 766 766 765 767 769 771 773 774 775 775 775 773 772 772 773 773 773 775
788 789 790 790 790 788 785 784 784 783 782 779 776 772 770 768 767 768 768 766 763 761 759 761 763 763 762 763 762 764 766 768 769 770 771 770 770 768 768 768 767 770 770
787 789 790 790 790 790 787 785 783 783 782 780 778 775 771 767 766 765 765 762 761 759 757 759 760 759 759 759 759 759 761 763 764 765 766 765 765 765 765 764 766 766 766
786 787 788 790 790 790 789 786 783 780 780 779 777 775 772 769 766 765 763 760 758 757 756 756 755 755 755 756 755 756 758 758 759 758 758 758 758 760 761 761 762 762 763
785 786 787 787 789 788 788 787 783 781 778 777 776 774 771 768 766 764 762 759 756 755 754 753 752 751 751 752 752 753 753 754 756 755 754 753 754 754 756 758 758 758 758
785 786 784 784 785 786 785 784 782 780 777 773 771 770 768 765 763 760 757 754 753 752 751 750 749 747 747 748 748 747 749 749 749 749 748 748 748 750 750 751 753 753 754
783 783 783 783 783 783 782 781 780 776 773 770 767 765 763 761 760 757 753 750 748 747 746 746 745 745 744 745 744 743 744 744 745 744 743 743 743 743 745 747 748 749 750
782 784 783 783 782 781 779 778 776 772 769 766 763 761 758 756 754 751 749 746 743 741 740 740 740 741 741 740 740 740 739 739 739 739 738 739 738 739 740 741 742 744 746
785 783 782 781 781 779 777 775 772 769 766 763 760 758 756 754 750 747 744 742 741 739 736 734 735 735 736 736 736 737 737 737 736 735 734 734 734 735 735 736 738 739 740
783 781 780 779 778 776 774 771 769 766 763 760 758 755 754 752 749 746 743 741 739 736 734 732 731 731 731 732 732 733 733 732 732 731 730 729 729 729 728 729 730 732 732
780 779 778 776 775 773 770 767 765 763 760 758 756 753 750 748 745 742 740 737 735 733 731 730 728 727 727 728 728 729 729 728 728 727 726 724 724 723 722 722 722 723 725
781 779 777 774 772 769 767 765 762 760 758 755 753 750 746 744 741 738 735 733 731 729 728 727 725 724 723 723 723 723 723 723 723 722 720 719 719 717 716 716 716 717 717
780 777 774 771 769 766 763 761 758 756 755 751 749 746 743 739 737 736 733 730 728 726 724 722 721 719 718 716 716 716 717 716 716 715 715 714 712 711 710 711 709 709 709
777 775 772 769 766 763 760 755 754 752 749 747 744 741 738 735 733 731 729 727 724 722 719 717 714 713 712 711 710 709 709 709 709 708 708 707 706 704 704 704 703 702 703
777 775 771 768 765 762 759 755 750 745 744 741 738 736 734 731 728 725 723 720 718 716 713 711 710 708 707 706 704 703 701 699 700 701 700 699 698 697 697 697 696 695 695
778 776 772 767 764 761 757 753 749 745 739 735 733 731 727 724 721 718 716 714 712 710 708 706 705 703 700 699 697 695 693 692 692 692 691 690 690 690 690 689 688 688 688
777 774 770 766 762 759 755 751 747 743 738 733 729 725 723 719 716 713 711 709 707 704 701 699 698 696 694 692 690 689 687 685 684 684 683 682 682 681 681 680 680 681 681
776 772 769 765 761 757 753 749 745 741 737 732 727 723 719 715 711 708 706 704 701 698 695 692 689 687 685 684 682 681 679 678 676 675 674 674 673 673 672 671 671 673 673
775 772 769 764 761 757 753 749 745 740 735 730 725 721 717 713 708 704 701 698 695 692 688 685 682 679 676 675 673 672 670 668 667 666 666 665 665 664 663 663 663 664 667
775 772 768 765 761 758 754 750 745 739 734 729 722 717 712 708 703 699 696 693 689 686 681 677 673 671 669 667 665 663 661 660 658 657 656 656 656 656 656 656 655 657 659
775 771 768 765 762 758 753 749 744 739 733 728 722 715 709 705 700 696 691 687 683 679 675 671 666 663 660 659 656 654 652 651 649 649 648 647 647 647 647 648 649 650 651
775 772 769 766 762 758 753 749 743 738 733 727 721 715 709 704 698 692 687 682 678 673 669 665 661 658 654 651 648 644 642 641 641 640 640 639 638 638 639 640 641 642 645
775 772 768 766 762 759 754 748 743 738 732 727 721 714 708 702 695 689 683 678 672 667 663 659 654 650 646 643 639 637 634 633 632 632 631 630 630 630 630 630 632 634 637
774 772 768 765 762 757 753 748 743 737 732 726 720 713 706 699 693 686 680 674 668 662 657 651 646 642 638 634 630 626 623 621 620 620 620 619 619 619 620 622 624 626 628